Location: Lucerne Valley
(34.4439°N, 116.9669°E)
Time: 14:11:34
(UTC-07:00)

Hubble Space Telescope - Pass Details

Date: 11 October 2017
Orbit: 537 x 541 km, 28.5° (Epoch: 22 October)

Event Time Altitude Azimuth Distance (km) Brightness Sun altitude
Exits shadow 13:06:32 14° 152° (SSE) 1,571 3.3 -27.2°
Drops below altitude 10° 13:07:16 10° 144° (SE) 1,783 3.7 -27.0°
Sets 13:09:54 0° 129° (SE) 2,673 4.9 -26.5°
